Location: Grand Lay
(47.3253°N, 0.9468°E)
Time: 08:56:17
(UTC+00:00)

USA 234 - Pass Details

Date: 18 January 2026
Orbit: 1102 x 1106 km, 123.0° (Epoch: 4 January)

Event Time Altitude Azimuth Distance (km) Brightness Sun altitude
Rises 06:29:26 0° 55° (NE) 3,933 6.7 -11.2°
Reaches altitude 10° 06:32:04 10° 61° (ENE) 2,972 6.2 -10.8°
Maximum altitude 06:38:19 46° 133° (SE) 1,454 4.5 -9.8°
Drops below altitude 10° 06:44:33 10° 206° (SSW) 2,956 5.5 -8.8°
Sets 06:47:09 0° 212° (SSW) 3,910 6.0 -8.4°
